Location: Downe
(51.3167°N, 0.0500°E)
Time: 14:00:53
(UTC+00:00)

Cosmos 1408 - Pass Details

Date: 17 November 2019
Orbit: 470 x 497 km, 82.6° (Epoch: 10 December)

Event Time Altitude Azimuth Distance (km) Brightness Sun altitude
Rises 05:08:01 0° 175° (S) 2,565 6.4 -20.3°
Reaches altitude 10° 05:10:09 10° 170° (S) 1,685 5.5 -20.0°
Maximum altitude 05:13:43 49° 95° (E) 641 3.5 -19.4°
Drops below altitude 10° 05:17:18 10° 20° (NNE) 1,686 5.4 -18.9°
Sets 05:19:26 0° 15° (NNE) 2,568 6.3 -18.5°
